Flag for Malaysia Weather past 2 weeks in Kuching, Malaysia

Now
86 °F

Broken clouds.


Feels Like: 97 °F
Forecast: 74 / 85 °F
Wind: 9 mph from West

Location: Kuching Airport

Current Time: Apr 25, 2015 at 5:02:14 PM

Latest Report: Apr 25, 2015 at 4:30 PM


Visibility: N/A

Pressure: 29.77 "Hg

Humidity: 75%

Dew point: 77 °F

Location of KuchingLocation

Historic Weather in Kuching — Graph

°F

Kuching temperature yesterday

Maximum temperature yesterday: 91 °F (at 1:00 PM)
Minimum temperature yesterday: 73 °F (at 5:00 AM)
Average temperature yesterday: 80 °F

Past Weeks' High & Low Weather Summary

 TemperatureHumidityPressure
High93 °F (Apr 18, 2:30 PM)100% (Apr 10, 7:00 PM)29.95 "Hg (Apr 10, 7:00 PM)
Low73 °F (Apr 10, 7:30 PM)59% (Apr 16, 2:30 PM)29.71 "Hg (Apr 14, 4:00 PM)
Average81 °F84%29.83 "Hg
* Reported Apr 10 3:00 PM — Apr 25 3:30 PM, Kuching, Weather by CustomWeather, © 2015

Note: Actual official high and low records may vary slightly from our data, if they occured in-between our weather recording intervals... More about our weather records

Advertising

Kuching weather history for previous 24 hours

 ConditionsComfort  
Time TempWeatherWind HumidityBarometerVisibility
3:30 PM
Sat, Apr 25
86 °FThunderstorms. Broken clouds.8 mph79%29.74 "HgN/A
3:00 PM84 °FBroken clouds.9 mph79%29.74 "HgN/A
2:30 PM81 °FThunderstorms. Broken clouds.8 mph89%29.77 "Hg5 mi
2:00 PM79 °FThunderstorms. Broken clouds.8 mph89%29.77 "Hg4 mi
1:30 PM81 °FThunderstorms. Broken clouds.10 mph89%29.80 "Hg2 mi
1:00 PM84 °FBroken clouds.9 mph74%29.80 "HgN/A
12:30 PM86 °FBroken clouds.12 mph75%29.83 "HgN/A
12:00 PM90 °FBroken clouds.5 mph67%29.83 "HgN/A
11:30 AM88 °FBroken clouds.5 mph75%29.83 "HgN/A
11:00 AM86 °FBroken clouds.5 mph75%29.86 "HgN/A
10:30 AM88 °FBroken clouds.3 mph75%29.86 "HgN/A
10:00 AM84 °FBroken clouds.1 mph84%29.86 "HgN/A
9:30 AM84 °FBroken clouds.1 mph79%29.86 "HgN/A
9:00 AM82 °FBroken clouds.No wind84%29.86 "HgN/A
8:30 AM81 °FBroken clouds.2 mph89%29.86 "HgN/A
8:00 AM77 °FBroken clouds.1 mph94%29.86 "HgN/A
7:30 AM75 °FPartly sunny.6 mph100%29.83 "Hg4 mi
7:00 AM75 °FPartly sunny.No wind100%29.83 "Hg5 mi
6:30 AM75 °FPassing clouds.No wind100%29.83 "HgN/A
6:00 AM75 °FPassing clouds.No wind94%29.83 "Hg5 mi
5:30 AM75 °FPassing clouds.No wind100%29.80 "HgN/A
5:00 AM75 °FPartly cloudy.No wind100%29.80 "HgN/A
4:30 AM75 °FPartly cloudy.No wind100%29.80 "HgN/A
4:00 AM75 °FPartly cloudy.No wind100%29.80 "HgN/A
3:30 AM75 °FPartly cloudy.No wind100%29.80 "HgN/A
3:00 AM75 °FPartly cloudy.No wind100%29.80 "HgN/A
2:30 AM75 °FPartly cloudy.No wind100%29.80 "HgN/A
2:00 AM77 °FPartly cloudy.No wind94%29.83 "HgN/A
1:30 AM77 °FPartly cloudy.No wind94%29.83 "HgN/A
1:00 AM77 °FPartly cloudy.No wind94%29.86 "HgN/A
12:30 AM77 °FPartly cloudy.No wind94%29.86 "HgN/A
12:00 AM77 °FPartly cloudy.No wind94%29.86 "HgN/A
11:30 PM
Fri, Apr 24
77 °FPartly cloudy.No wind94%29.86 "HgN/A
11:00 PM79 °FPartly cloudy.No wind89%29.86 "HgN/A
10:30 PM77 °FPassing clouds.No wind94%29.86 "HgN/A
10:00 PM77 °FPartly cloudy.No wind94%29.86 "HgN/A
9:30 PM77 °FPartly cloudy.No wind94%29.86 "HgN/A
9:00 PM77 °FPartly cloudy.No wind94%29.83 "HgN/A
8:30 PM79 °FPartly cloudy.No wind89%29.83 "HgN/A
8:00 PM79 °FPartly cloudy.No wind89%29.80 "HgN/A
7:30 PM79 °FPartly cloudy.No wind89%29.80 "HgN/A
7:00 PM81 °FPartly cloudy.No wind89%29.80 "HgN/A
6:30 PM82 °FBroken clouds.5 mph84%29.77 "Hg4 mi
6:00 PM82 °FBroken clouds.6 mph84%29.77 "Hg5 mi
5:30 PM82 °FBroken clouds.9 mph79%29.74 "Hg5 mi
5:00 PM86 °FScattered showers. Broken clouds.6 mph70%29.74 "Hg5 mi
Weather by CustomWeather, © 2015

See weather overviewHow to use our weather pages